BREEZE-M DEB, 38574

Orbit data source: Space-Track

BREEZE-M DEB, 38574 is space debris in HEO originally from a launch on Fri, 14 Mar 2008 UTC launched from the Tyuratam Missile And Space Complex (TTMTR). Debris objects in space refer to the collection of defunct objects orbiting the Earth. Examples of debris include non-operational satellites, rocket bodies, and fragments generated from explosions, collisions, or faulty payload assembly.

Loading next visibility...
Identifier
38574, 2008-011V
Orbit
HEO
Country
Flag of CISCIS
Related business
Manufacturer
Unknown
Mission
Spacecraft
Bus & Motor
Unknown
Mass
Unknown
Launch date (UTC)
2008-03-14 (18 years ago)
Launch vehicle
Unknown
Launch site
Tyuratam Missile And Space Complex (TTMTR)
Object type
Payload
Rocket body
Debris
Shape & HBR
Unknown shape, 0.2 m
Radar Cross Section
Medium (>0.1 m² and <1 m²)

Expand to show TLE details & history
Last TLE update: 4 days ago

TLE from 4 days ago
0 BREEZE-M DEB
1 38574U 08011V   26170.10788579  .00000063  00000-0  00000-0 0  9997
2 38574  48.3545 205.7470 6241607  69.8548 344.5046  3.01759219  4196
Epoch: 2026-06-19T02:35Z
TLE epoch observation values (Epoch: 2026-06-19T02:35:21.332Z)
Latitude
-0.00004°
Longitude
-100.42124°
Altitude
3,768.158 km
Speed
7.673 km/s
True Right ascension
13h 43m 02s
True Declination
0° 00' 00"
Sunlit
Object was in daylight at epoch
Visualization orbit readout
Latitude
Unknown
Longitude
Unknown
Altitude
Unknown
Speed
Unknown
Apparent Right ascension
Unknown
Apparent Declination
Unknown
Sunlit
N/A
Visualization observer readout
Local Sidereal Time
03:27:29
Azimuth
Unknown
Elevation
Unknown
Doppler factor
Unknown
Orbital elements
Apogee altitude
26,477.255 km
Perigee altitude
1,224.773 km
Semi-major axis
20,229.151 km
Eccentricity
0.62416
Inclination
48.3545°
RAAN
205.747°
Arg. of periapsis
69.8548°
True anomaly
290.30437°
Mean anomaly
344.5046°
Eccentric anomaly
322.96537°
Mean motion
0.75436 °/min
Orbital period
477.23 mins
BSTAR
0
Loading maneuver chart data...
Computing Atmospheric mass density...
Loading historical data...
Loading historical data...
Loading historical data...
Loading historical data...
Loading historical data...
Loading historical data...
Loading historical data...

Documentation

Showing up to 5 results
|